Location: Le Petit-Vavre
(46.5081°N, 1.5239°E)
Time: 20:45:39
(UTC+00:00)

SL-4 R/B - Pass Details

Date: 03 March 2021
Orbit: 428 x 663 km, 51.6° (Epoch: 21 April)

Event Time Altitude Azimuth Distance (km) Brightness Sun altitude
Rises 19:49:16 0° 296° (WNW) 2,462 6.8 -22.4°
Reaches altitude 10° 19:51:27 10° 299° (WNW) 1,564 5.4 -22.7°
Enters shadow 19:54:07 47° 319° (NW) 585 2.4 -23.2°
